Weather History for Glendive, MT

Change the Weather History Date:

Saturday, February 23, 2013

  Actual Average Record
Temperature  
Mean Temperature 35 °F -  
Max Temperature 46 °F 30 °F 51 °F (2009)
Min Temperature 24 °F 11 °F -16 °F (2003)
Degree Days  
Heating Degree Days 30    
Moisture  
Dew Point 22 °F    
Average Humidity 61    
Maximum Humidity 74    
Minimum Humidity 42    
Precipitation  
Precipitation 0.00 in - - ()
Sea Level Pressure  
Sea Level Pressure 29.66 in    
Wind  
Wind Speed 9 mph (SW)    
Max Wind Speed 17 mph    
Max Gust Speed 24 mph    
Visibility 10 miles    
Events      
Averages and records for this station are not official NWS values.
T = Trace of Precipitation, MM = Missing Value Source: NWS Daily Summary

Daily Weather History Graph

Daily Weather History Graph

Search for Another Location

Airport:

Trip Planner

Search our weather history database for the weather conditions in past years. The results will help you decide how hot, cold, wet, or windy it might be!

Date:

Astronomy

Feb. 23, 2013 Rise Set
Actual Time 6:49 AM MST 5:36 PM MST
Civil Twilight 6:18 AM MST 6:07 PM MST
Nautical Twilight 5:43 AM MST 6:42 PM MST
Astronomical Twilight 5:08 AM MST 7:17 PM MST
Moon 3:45 PM MST (2/23) 5:18 AM MST (2/23)
Length of Visible Light 11h 48m
Length of Day
10h 46m
Waxing Gibbous, 95% of the Moon is Illuminated
Feb 23
Waxing Gibbous
Feb 25
Full
Mar 4
Last Quarter
Mar 11
New
Mar 19
First Quarter

Hourly Weather History & Observations

Time (MST) Temp. Windchill Dew Point Humidity Pressure Visibility Wind Dir Wind Speed Gust Speed Precip Events Conditions
12:15 AM 24.8 °F 14.6 °F 17.6 °F 74% 29.65 in 10.0 mi South 10.4 mph - N/A   Clear
12:35 AM 26.6 °F 17.5 °F 17.6 °F 69% 29.65 in 10.0 mi South 9.2 mph - N/A   Clear
12:55 AM 24.8 °F 16.9 °F 17.6 °F 74% 29.64 in 10.0 mi South 6.9 mph - N/A   Clear
1:15 AM 24.8 °F 16.9 °F 17.6 °F 74% 29.64 in 10.0 mi South 6.9 mph - N/A   Clear
1:35 AM 24.8 °F 16.9 °F 17.6 °F 74% 29.63 in 10.0 mi South 6.9 mph - N/A   Clear
2:15 AM 24.8 °F 16.9 °F 17.6 °F 74% 29.61 in 10.0 mi South 6.9 mph - N/A   Clear
2:35 AM 24.8 °F 17.9 °F 17.6 °F 74% 29.61 in 10.0 mi South 5.8 mph - N/A   Clear
2:55 AM 24.8 °F 15.3 °F 17.6 °F 74% 29.60 in 10.0 mi South 9.2 mph - N/A   Partly Cloudy
3:15 AM 26.6 °F 18.2 °F 17.6 °F 69% 29.60 in 10.0 mi South 8.1 mph - N/A   Mostly Cloudy
3:35 AM 26.6 °F 19.1 °F 19.4 °F 74% 29.59 in 10.0 mi South 6.9 mph - N/A   Overcast
3:55 AM 26.6 °F 18.2 °F 17.6 °F 69% 29.59 in 10.0 mi South 8.1 mph - N/A   Overcast
4:15 AM 26.6 °F 18.2 °F 17.6 °F 69% 29.59 in 10.0 mi South 8.1 mph - N/A   Overcast
4:55 AM 26.6 °F 19.1 °F 17.6 °F 69% 29.59 in 10.0 mi South 6.9 mph - N/A   Overcast
5:15 AM 26.6 °F 20.0 °F 17.6 °F 69% 29.58 in 10.0 mi South 5.8 mph - N/A   Mostly Cloudy
5:35 AM 26.6 °F 17.5 °F 17.6 °F 69% 29.59 in 10.0 mi South 9.2 mph - N/A   Clear
5:55 AM 26.6 °F 17.5 °F 17.6 °F 69% 29.59 in 10.0 mi South 9.2 mph - N/A   Partly Cloudy
6:15 AM 26.6 °F 18.2 °F 17.6 °F 69% 29.58 in 10.0 mi South 8.1 mph - N/A   Partly Cloudy
6:35 AM 26.6 °F 18.2 °F 17.6 °F 69% 29.59 in 10.0 mi South 8.1 mph - N/A   Clear
6:55 AM 26.6 °F 17.5 °F 17.6 °F 69% 29.59 in 10.0 mi SSW 9.2 mph - N/A   Clear
7:15 AM 28.4 °F 19.1 °F 17.6 °F 64% 29.59 in 10.0 mi South 10.4 mph - N/A   Clear
7:35 AM 28.4 °F 19.7 °F 17.6 °F 64% 29.58 in 10.0 mi South 9.2 mph - N/A   Clear
7:55 AM 30.2 °F 21.9 °F 19.4 °F 64% 29.58 in 10.0 mi South 9.2 mph - N/A   Clear
8:16 AM 30.2 °F 21.3 °F 19.4 °F 64% 29.59 in 10.0 mi SSW 10.4 mph - N/A   Clear
8:35 AM 30.2 °F 22.6 °F 19.4 °F 64% 29.59 in 10.0 mi South 8.1 mph - N/A   Clear
8:55 AM 32.0 °F 23.6 °F 19.4 °F 60% 29.59 in 10.0 mi South 10.4 mph - N/A   Clear
9:15 AM 33.8 °F 25.3 °F 19.4 °F 56% 29.59 in 10.0 mi South 11.5 mph - N/A   Clear
9:35 AM 33.8 °F 26.4 °F 19.4 °F 56% 29.60 in 10.0 mi SSW 9.2 mph - N/A   Clear
9:55 AM 35.6 °F 28.0 °F 21.2 °F 56% 29.60 in 10.0 mi SSW 10.4 mph - N/A   Clear
10:15 AM 37.4 °F 30.8 °F 21.2 °F 52% 29.59 in 10.0 mi SSW 9.2 mph - N/A   Clear
10:35 AM 39.2 °F 32.5 °F 21.2 °F 49% 29.60 in 10.0 mi South 10.4 mph - N/A   Clear
10:55 AM 39.2 °F 32.5 °F 21.2 °F 49% 29.60 in 10.0 mi SSW 10.4 mph - N/A   Clear
11:15 AM 41.0 °F 34.7 °F 21.2 °F 45% 29.61 in 10.0 mi South 10.4 mph - N/A   Clear
11:35 AM 42.8 °F 36.6 °F 21.2 °F 42% 29.61 in 10.0 mi South 11.5 mph - N/A   Clear
11:55 AM 42.8 °F 36.6 °F 23.0 °F 46% 29.60 in 10.0 mi South 11.5 mph - N/A   Clear
12:15 PM 44.6 °F 39.7 °F 23.0 °F 43% 29.60 in 10.0 mi SSW 9.2 mph - N/A   Clear
12:35 PM 44.6 °F 40.2 °F 23.0 °F 43% 29.61 in 10.0 mi SSW 8.1 mph - N/A   Clear
12:55 PM 44.6 °F 40.2 °F 23.0 °F 43% 29.61 in 10.0 mi SW 8.1 mph - N/A   Partly Cloudy
1:15 PM 46.4 °F 41.9 °F 24.8 °F 43% 29.61 in 10.0 mi WSW 9.2 mph - N/A   Partly Cloudy
1:35 PM 46.4 °F 42.9 °F 24.8 °F 43% 29.61 in 10.0 mi West 6.9 mph - N/A   Scattered Clouds
1:55 PM 46.4 °F 41.5 °F 26.6 °F 46% 29.61 in 10.0 mi WNW 10.4 mph - N/A   Partly Cloudy
2:15 PM 46.4 °F 41.9 °F 26.6 °F 46% 29.62 in 10.0 mi West 9.2 mph - N/A   Partly Cloudy
2:35 PM 44.6 °F 37.2 °F 26.6 °F 49% 29.63 in 10.0 mi West 17.3 mph 23.0 mph N/A   Mostly Cloudy
2:55 PM 44.6 °F 37.8 °F 26.6 °F 49% 29.63 in 10.0 mi WNW 15.0 mph 24.2 mph N/A   Scattered Clouds
3:15 PM 44.6 °F 38.4 °F 26.6 °F 49% 29.63 in 10.0 mi WNW 12.7 mph - N/A   Clear
3:35 PM 44.6 °F 37.8 °F 26.6 °F 49% 29.64 in 10.0 mi NW 15.0 mph - N/A   Clear
3:55 PM 42.8 °F 36.2 °F 26.6 °F 53% 29.65 in 10.0 mi NW 12.7 mph - N/A   Clear
4:15 PM 42.8 °F 36.2 °F 26.6 °F 53% 29.66 in 10.0 mi NW 12.7 mph - N/A   Clear
4:35 PM 41.0 °F 33.1 °F 26.6 °F 57% 29.67 in 10.0 mi NW 15.0 mph 23.0 mph N/A   Clear
5:15 PM 39.2 °F 31.6 °F 26.6 °F 61% 29.70 in 10.0 mi NW 12.7 mph - N/A   Clear
5:35 PM 37.4 °F 29.3 °F 26.6 °F 65% 29.71 in 10.0 mi NW 12.7 mph - N/A   Clear
5:55 PM 37.4 °F 28.9 °F 26.6 °F 65% 29.72 in 10.0 mi NW 13.8 mph - N/A   Clear
6:15 PM 37.4 °F 28.9 °F 26.6 °F 65% 29.73 in 10.0 mi NW 13.8 mph - N/A   Clear
6:35 PM 35.6 °F 27.1 °F 26.6 °F 70% 29.74 in 10.0 mi NW 12.7 mph - N/A   Clear
6:55 PM 35.6 °F 28.0 °F 26.6 °F 70% 29.76 in 10.0 mi NW 10.4 mph - N/A   Partly Cloudy
7:16 PM 35.6 °F 29.2 °F 26.6 °F 70% 29.77 in 10.0 mi NW 8.1 mph - N/A   Mostly Cloudy
7:35 PM 35.6 °F 29.2 °F 26.6 °F 70% 29.78 in 10.0 mi NW 8.1 mph - N/A   Mostly Cloudy
8:15 PM 35.6 °F 30.7 °F 26.6 °F 70% 29.79 in 10.0 mi NNW 5.8 mph - N/A   Mostly Cloudy
8:35 PM 37.4 °F 32.1 °F 24.8 °F 60% 29.80 in 10.0 mi NNW 6.9 mph - N/A   Mostly Cloudy
9:15 PM 35.6 °F 29.9 °F 24.8 °F 65% 29.81 in 10.0 mi WNW 6.9 mph - N/A   Clear
9:35 PM 35.6 °F 29.2 °F 24.8 °F 65% 29.81 in 10.0 mi NW 8.1 mph - N/A   Clear
9:55 PM 35.6 °F 29.9 °F 24.8 °F 65% 29.82 in 10.0 mi West 6.9 mph - N/A   Clear
10:15 PM 35.6 °F 29.2 °F 24.8 °F 65% 29.82 in 10.0 mi WSW 8.1 mph - N/A   Clear
10:35 PM 35.6 °F 29.2 °F 24.8 °F 65% 29.82 in 10.0 mi WSW 8.1 mph - N/A   Scattered Clouds
10:55 PM 35.6 °F 29.2 °F 24.8 °F 65% 29.83 in 10.0 mi WSW 8.1 mph - N/A   Mostly Cloudy
11:15 PM 35.6 °F 28.6 °F 24.8 °F 65% 29.84 in 10.0 mi WSW 9.2 mph - N/A   Partly Cloudy
11:35 PM 35.6 °F 28.6 °F 24.8 °F 65% 29.84 in 10.0 mi West 9.2 mph - N/A   Mostly Cloudy
11:55 PM 35.6 °F 27.5 °F 26.6 °F 70% 29.85 in 10.0 mi West 11.5 mph 21.9 mph N/A   Overcast